FENGYUN 1C DEB

Satellite information

Favourite Embed

Satellite Type and Status

DEBRISIN ORBIT

Key statistics

Satellite FENGYUN 1C DEB at a glance.

Uptime

9659

Days in orbit

Revolutions

≈ 14.3

Per day

Orbit

SSO

Sun Synchronous Orbit

Inclination

99.2

Latest

Satellite identification and parameters

Extended collection of information and parameters for FENGYUN 1C DEB.

Object identification

Identified? True

Debris? True

Object name: FENGYUN 1C DEB

International designator: 1999-025DC

Object number (NORAD): 29810

Object ID (CCSDS): 29810

Country: PEOPLES REPUBLIC OF CHINA (PRC)

Current information (Y/N): Y

RCS size: SMALL

Orbital parameters

Period: 100.769 minutes

Inclination: 99.2149 deg

SMA: 7173.156 km

Apoapsis: 843.27 km

Periapsis: 746.771 km

RAAN: 325.6668 deg

Eccentricy: 0.00672644

Argument of periapsis: 175.3767 deg

Mean anomaly: 308.7896 deg

Mean motion: 14.29016988 rev/day

Mean motion (dot): 0.00000944 rev/day2

B* drag term: 0.00038277755 1/REarth

Two-line elements (TLE)

Creation date: Oct. 19, 2025, 2:20 a.m.

Reference frame: TEME

Reference center: EARTH

Epoch: Oct. 18, 2025, 9:48 p.m. UTC

TLE line 0: 0 FENGYUN 1C DEB

TLE line 1: 1 29810U 99025DC 25291.90867047 .00000944 00000-0 38278-3 0 9993

TLE line 2: 2 29810 99.2149 325.6668 0067264 175.3767 308.7896 14.29016988975946

Live tracking on map

Real-time ground track for satellite FENGYUN 1C DEB.

In-orbit conjunctions

A list of the most updated potential collisions computed for object FENGYUN 1C DEB.

Target Orbit TCA Probability of collision Miss distance Type
COSMOS 249 MEO 2024-10-22 03:32:13 0.0001197089 325.0 (m) PAYLOAD
THORAD AGENA D DEB SSO 2024-08-23 02:35:39 0.0001093415 198.0 (m) DEBRIS

Associated space launch

Chinese polar orbiting meteorological satellite

FENGYUN 1C DEB was lifted into orbit during the mission ‘Long March 4B | Feng Yun 1C’, on board a Long March 4B space rocket.

The launch took place on May 10, 1999, 1:33 a.m. from Launch Complex 7.

For more information about the launch, click the button.

Launch to space Long March 4B | Feng Yun 1C
Long March 4B | Feng Yun 1C

Agency: N/A

Status: Launch Successful

Launch date: May 10, 1999, 1:33 a.m. UTC

Rocket: Long March 4B

Launch pad: Launch Complex 7

Location: Taiyuan Satellite Launch Center, People's Republic of China

...

Latest news about this satellite

There are no fresh news available about this satellite. Check back as we update our databases every day.


Newsletter sign-up

Weekly statistics, charts and insights to help you stay on top of the space industry.